SCP
-0 0 0 0 -0 -0 -0 0 0 0 -0 -0 -0 -0 -0 -0 -0 0 0 0 0 0 0 0 0 0 0 0 0 0 -0 0 0 0 0 -0 0 0 0 0 0 0 0 -0 -0 0 0
-0 0 0 -0 -0 -0 0 0 -0 -0 -0 -0 -0 -0 -0 -0 -0 -0 -0 0 0 0 0 0 0 0 0 0 0 0 -0 0 -0 0 0 0 0 0 0 0 0 0 -0 -0 0 0 0
0 0 0 -0 -0 -0 0 -0 -0 -0 -0 -0 -0 -0 -0 -0 -0 -0 -0 -0 0 0 0 -0 0 0 0 0 0 0 -0 0 0 0 0 0 0 0 0 0 0 0 0 0 0 0 0
0 0 0 -0 -0 0 -0 -0 -0 -0 -0 -0 -0 -0 -0 -0 -0 -0 -0 0 0 0 0 0 0 0 0 0 0 0 0 0 0 0 0 0 0 0 0 0 0 0 0 0 0 0 0
0 -0 -0 -0 -0 0 -0 -0 -0 -0 -0 -0 -0 -0 -0 -0 -0 -0 -0 -0 0 -0 0 0 0 0 -0 0 0 -0 0 0 0 0 0 0 0 0 0 0 0 0 0 0 0 -0 0
0 0 -0 -0 -0 -0 -0 -0 -0 -0 -0 -0 -0 -0 -0 -0 -0 -0 -0 0 0 0 0 0 0 -0 -0 0 0 0 0 -0 0 0 0 0 0 0 0 0 0 0 0 0 0 -0 0
-0 -0 -0 0 -0 -0 0 -0 -0 -0 -0 -0 -0 -0 -0 -0 -0 -0 -0 0 0 0 0 0 0 0 0 0 0 0 0 0 -0 0 0 0 0 0 0 0 0 0 0 0 0 0 0
0 0 0 0 -0 -0 0 -0 -0 -0 -0 -0 -0 -0 -0 -0 -0 -0 0 0 0 0 0 -0 -0 0 0 0 0 0 0 0 0 0 0 0 0 0 0 0 0 0 0 0 0 0 0
-0 0 0 -0 -0 -0 0 -0 -0 -0 -0 -0 -0 -0 -0 -0 -0 0 0 -0 0 0 0 -0 0 -0 0 0 0 0 0 0 0 0 0 0 0 -0 0 0 0 0 0 0 0 0 0
-0 0 -0 -0 0 -0 0 -0 -0 -0 -0 -0 -0 -0 -0 -0 0 0 0 0 0 -0 0 0 0 0 0 0 0 0 0 0 0 0 0 0 -0 0 0 -0 0 0 0 0 0 0 0
-0 -0 0 -0 0 -0 -0 0 -0 -0 -0 -0 -0 -0 -0 0 0 0 0 0 0 0 0 0 0 0 -0 0 0 0 0 0 0 0 0 0 0 0 0 0 -0 0 0 0 0 0 0
-0 -0 -0 -0 -0 -0 -0 -0 -0 -0 -0 -0 -0 -0 -0 0 0 0 0 -0 -0 0 0 0 0 0 0 0 0 0 0 0 0 0 0 0 0 0 0 -0 -0 -0 0 0 0 0 0
-0 -0 -0 -0 -0 -0 -0 -0 -0 -0 -0 -0 -0 -0 0 0 0 0 0 0 0 0 0 0 0 0 0 0 0 0 0 0 0 0 0 0 0 0 0 0 0 -0 0 0 0 0 0
0 -0 -0 -0 -0 -0 0 -0 -0 -0 -0 -0 -0 -0 0 0 -0 0 0 0 0 0 0 0 0 0 0 0 0 0 0 0 0 0 0 0 0 0 0 0 0 0 0 0 0 0 0
0 -0 -0 -0 -0 -0 -0 0 0 -0 -0 -0 -0 0 0 0 0 0 0 0 0 0 0 0 0 0 0 0 0 0 0 0 0 0 0 0 0 0 0 0 0 0 0 0 0 0 0
0 -0 -0 -0 -0 -0 -0 0 0 0 -0 -0 0 0 0 -0 0 0 0 0 0 0 0 0 0 0 0 0 0 0 0 0 0 0 0 0 0 0 0 0 0 0 0 0 0 0 0
0 -0 -0 -0 -0 -0 -0 -0 0 0 -0 -0 0 0 0 0 0 0 0 0 0 0 0 0 0 0 0 0 0 0 0 0 0 0 0 0 0 0 0 0 0 0 0 0 0 0 0
0 -0 -0 -0 -0 -0 -0 -0 -0 0 -0 -0 0 0 0 0 0 0 0 0 0 0 0 0 0 0 0 0 0 0 0 0 0 0 0 0 0 0 0 0 0 0 0 0 0 0 0
0 0 -0 -0 -0 -0 -0 0 0 0 -0 0 0 0 -0 0 0 0 0 0 0 0 0 0 0 0 0 0 0 0 0 0 0 0 0 0 0 0 0 0 0 0 0 0 -0 -0 0
0 0 0 0 0 0 -0 0 0 0 -0 0 0 0 0 0 0 0 0 0 0 0 0 0 0 0 0 0 0 0 0 0 0 0 0 0 0 0 0 0 0 0 0 -0 0 0 0
0 0 0 0 0 -0 -0 0 0 0 0 0 0 0 0 0 0 0 0 0 0 0 0 0 0 0 0 0 0 0 0 0 0 0 0 0 0 0 0 0 0 0 0 0 0 0 0
0 0 0 0 0 0 0 0 0 0 0 0 0 0 0 0 0 0 0 0 0 0 0 0 0 0 0 0 0 0 0 0 0 0 0 0 0 0 0 0 0 0 0 0 -0 0 0
0 0 0 0 0 0 0 0 0 0 0 0 0 0 0 0 0 0 0 0 0 0 0 0 0 0 0 0 0 0 0 0 0 0 0 0 0 0 0 0 0 0 0 0 0 0 0
0 0 0 0 0 0 0 0 0 0 0 0 0 0 0 0 0 0 0 0 0 0 0 0 0 0 0 0 0 0 0 0 0 0 0 0 0 0 0 0 0 0 0 0 0 0 0
0 0 0 0 0 0 0 0 0 0 0 0 0 0 0 0 0 0 0 0 0 0 0 0 0 0 0 0 0 0 0 0 0 0 0 0 0 0 0 0 0 0 0 0 0 0 0
0 0 0 0 0 0 0 0 0 0 0 0 0 0 0 0 0 0 0 0 0 0 0 0 0 0 0 0 0 0 0 0 0 0 0 0 0 0 0 0 0 0 0 0 0 0 0
0 0 0 0 0 0 0 0 0 0 0 0 0 0 0 0 0 0 0 0 0 0 0 0 0 0 0 0 0 0 0 0 0 0 0 0 0 0 0 0 0 0 0 0 0 0 0
0 0 0 0 0 0 0 0 0 0 0 0 0 0 0 0 0 0 0 0 0 0 0 0 0 0 0 0 0 0 0 0 0 0 0 0 0 0 0 0 0 0 0 0 0 0 0
0 0 0 0 0 0 0 0 0 0 0 0 0 0 0 0 0 -0 -0 0 0 0 0 0 0 0 0 0 0 0 0 0 0 0 0 0 0 0 0 0 0 0 0 0 0 0 0
Wind_Speed_500mb
45 47 49 51 51 50 50 50 51 51 51 51 51 50 46 47 43 39 34 30 26 24 22 20 19 16 13 11 23 15 27 20 12 13 26 24 26 36 14 19 38 14 26 55 50 53 54
47 51 54 54 54 54 54 54 54 53 53 52 52 49 43 42 42 39 34 27 21 18 16 14 12 10 8 10 7 10 26 14 8 11 19 20 26 32 33 33 14 41 42 37 50 52 36
49 53 56 55 54 56 55 56 56 55 55 55 53 50 41 40 39 38 34 26 22 17 12 7 6 9 14 21 7 17 21 21 8 10 13 14 28 32 37 18 29 37 21 26 33 27 14
50 54 56 54 56 57 56 56 56 56 56 56 54 51 40 37 35 31 30 29 24 17 11 6 2 6 14 2 9 13 15 18 12 20 13 24 29 30 37 37 28 17 15 10 18 27 38
49 54 55 57 58 58 58 58 58 58 58 57 55 51 42 32 30 29 34 29 17 15 14 7 8 12 18 7 8 11 13 19 19 17 22 21 22 16 25 10 12 10 17 23 28 29 22
46 50 54 58 60 61 62 61 61 60 58 57 56 52 44 30 21 27 36 25 17 12 13 4 4 11 7 10 1 24 6 12 17 13 14 23 7 5 9 3 12 15 14 19 23 26 17
43 47 51 56 60 62 65 65 64 61 59 57 57 53 45 27 14 18 36 37 28 7 24 20 27 15 17 16 9 7 4 7 17 13 10 23 6 12 23 23 26 25 33 34 31 33 23
41 46 51 56 60 63 66 68 67 64 59 55 55 53 43 19 12 14 17 33 23 23 21 23 27 19 11 8 12 17 11 7 16 11 15 11 15 23 26 25 24 23 29 30 29 31 11
43 48 53 56 59 62 64 68 70 67 59 54 52 52 45 21 11 17 29 26 25 18 8 25 17 14 4 7 8 15 20 15 13 12 18 17 18 27 28 33 30 25 18 19 17 24 15
45 49 53 57 59 61 64 66 70 69 62 54 50 49 44 26 6 17 27 25 25 23 4 11 9 7 15 13 10 10 5 8 8 14 19 20 28 29 31 32 23 14 19 25 20 12 18
45 50 53 58 61 63 65 68 69 68 65 55 46 47 37 27 11 11 26 33 28 5 4 13 10 6 8 11 3 12 12 11 14 21 15 24 21 25 30 31 33 35 20 22 14 12 5
46 50 55 59 63 66 68 69 70 68 64 57 43 41 34 18 11 20 42 30 12 2 6 7 5 6 12 35 9 14 16 24 22 14 21 24 49 27 36 40 38 36 29 18 9 7 13
47 51 56 60 64 68 69 71 72 69 63 57 44 37 29 12 7 19 33 24 3 5 4 8 9 8 14 19 16 17 17 9 10 20 15 23 20 10 41 31 24 37 6 10 14 6 12
45 51 57 61 66 70 71 72 73 69 62 59 45 34 14 11 11 19 23 6 7 17 21 15 17 21 21 19 11 10 14 12 16 16 10 10 12 19 37 19 9 17 8 9 12 13 6
45 50 55 60 65 70 73 73 73 70 63 59 44 23 4 4 18 15 12 3 6 11 17 18 19 13 10 13 3 7 15 11 18 21 9 11 8 38 28 27 4 11 11 18 18 8 6
44 50 53 58 63 69 73 74 73 70 62 55 46 20 8 10 12 3 1 10 9 19 17 14 8 12 15 24 17 18 10 14 13 30 27 15 11 13 29 16 23 3 2 7 11 1 8
44 49 52 55 60 66 71 73 73 71 62 50 27 14 2 11 7 12 5 7 8 20 18 13 13 13 15 15 16 16 11 13 18 20 26 14 6 14 17 3 3 12 9 6 8 6 3
43 48 52 53 57 62 68 70 71 69 64 50 12 7 10 27 4 7 2 3 3 13 20 2 4 8 11 15 10 12 15 6 14 11 8 4 7 9 24 23 13 18 7 7 3 9 11
41 45 50 50 52 57 63 66 64 61 59 60 29 13 3 20 5 9 22 16 1 6 10 10 11 13 15 11 9 11 17 31 15 9 6 7 7 10 16 8 13 12 4 7 11 17 15
39 43 47 49 51 54 59 62 57 50 46 45 17 8 10 16 32 15 15 11 17 13 5 2 6 18 10 10 13 10 17 19 13 9 20 10 3 7 9 16 5 6 16 9 10 9 10
40 43 44 47 47 52 56 58 52 42 31 32 14 12 19 9 16 25 15 16 19 20 9 2 3 14 8 6 9 15 22 19 26 24 9 10 7 10 20 25 30 15 23 18 25 29 11
40 41 43 46 44 46 51 55 52 40 21 19 15 15 20 36 32 19 11 11 17 11 18 12 13 22 16 11 10 10 16 13 6 19 15 7 5 12 14 26 31 23 30 28 47 21 19
41 41 40 43 43 42 48 52 52 41 24 4 10 21 12 20 17 16 15 0 10 13 7 13 10 6 13 16 21 25 29 34 25 10 10 8 3 5 8 20 28 16 11 8 11 15 9
42 41 38 38 41 38 43 49 48 42 30 16 7 18 12 10 16 20 39 29 4 10 10 20 27 12 12 19 28 34 38 43 38 31 35 11 6 3 8 14 7 12 13 12 10 23 27
41 40 36 35 36 37 41 47 46 36 28 15 7 21 14 10 25 34 31 31 25 18 12 21 19 11 14 18 6 11 9 9 17 25 21 24 9 3 5 6 16 22 7 9 8 12 27
41 38 35 33 34 35 39 45 44 32 20 13 4 10 9 14 8 30 29 27 11 9 13 9 12 5 13 3 4 6 6 7 6 5 7 21 12 9 3 3 6 13 19 25 20 3 22
42 36 34 33 35 37 40 46 39 24 18 16 7 7 9 15 31 24 12 11 17 21 7 19 8 4 7 2 2 4 7 11 7 6 6 4 2 14 5 6 10 14 22 15 5 8 12
44 38 34 34 37 39 42 42 35 20 17 14 7 7 13 16 50 38 28 27 24 19 3 12 8 1 4 2 3 5 4 5 5 10 2 11 5 8 6 6 10 15 8 7 13 14 15
49 39 33 37 39 44 41 39 31 17 16 15 9 11 18 23 33 32 32 33 29 22 19 7 9 8 8 3 5 5 5 7 9 6 9 1 7 5 1 8 6 19 25 6 2 18 14
Wind_Direction_500mb
28 23 20 19 16 13 10 7 4 1 358 357 354 352 352 352 353 348 338 327 319 313 307 296 287 296 299 297 271 336 322 325 340 226 223 211 254 250 239 243 258 255 254 258 261 275 276
28 25 21 17 15 12 9 6 3 0 358 358 357 355 355 357 360 358 354 351 343 332 320 302 283 277 259 262 342 306 330 299 284 237 209 223 255 261 270 281 271 286 304 299 298 284 287
28 24 18 15 12 10 6 4 2 0 358 358 358 357 354 354 353 0 3 4 358 354 345 327 280 250 242 252 184 332 320 319 307 246 201 242 283 289 300 318 304 306 305 297 291 280 262
24 19 16 15 12 8 3 1 1 0 359 357 357 357 353 351 358 2 6 359 360 11 5 26 73 252 260 295 236 263 252 261 274 236 270 280 294 305 279 292 324 331 309 289 282 265 269
19 18 16 12 9 6 2 359 358 358 359 357 356 356 353 354 1 11 2 356 360 6 26 78 51 335 279 291 267 337 248 244 237 241 247 272 312 328 315 310 325 284 265 276 278 245 243
16 17 15 12 9 7 3 360 357 356 356 356 354 354 353 353 5 27 14 8 359 9 354 291 242 316 315 6 306 326 269 242 257 225 266 257 280 236 302 295 246 263 252 254 251 274 248
12 12 9 7 6 5 3 360 358 355 353 354 353 353 353 354 18 10 31 15 6 15 324 261 277 264 324 354 305 328 159 236 256 210 246 256 201 237 245 229 234 253 273 282 289 289 318
3 0 358 357 357 358 0 360 358 355 352 351 351 351 350 351 27 360 3 17 7 324 307 271 267 260 248 320 273 217 176 209 240 239 244 273 249 241 254 261 260 259 258 273 283 285 306
357 355 354 354 354 355 356 357 357 355 352 349 349 349 344 341 347 5 344 357 349 330 279 299 228 258 206 256 286 321 171 199 257 263 242 244 261 271 253 251 258 261 271 273 264 307 317
356 355 354 354 354 353 354 354 354 353 350 347 346 344 346 345 322 349 15 359 335 330 324 195 190 174 240 253 254 188 240 259 262 259 267 266 277 269 273 281 276 245 257 273 273 285 285
356 356 356 355 355 353 351 350 351 350 347 344 345 338 349 330 331 349 350 340 329 7 11 168 92 65 291 258 351 226 192 236 267 278 287 276 271 272 276 268 277 275 234 259 278 260 267
357 357 356 356 355 354 351 349 349 348 345 340 342 335 338 313 293 356 346 318 316 350 245 122 76 55 344 339 275 184 205 237 244 251 258 267 277 272 280 284 283 282 275 257 273 241 263
357 356 356 356 355 354 353 350 349 347 344 339 339 329 322 294 252 358 339 331 358 233 229 79 30 345 336 297 300 360 306 356 317 305 302 286 259 24 31 356 339 347 262 282 253 279 225
355 355 354 354 354 353 353 351 350 349 346 337 341 329 327 49 29 6 336 351 262 351 20 28 8 324 288 269 31 336 350 328 319 21 328 1 354 39 340 334 238 322 43 269 219 219 269
352 354 354 353 355 354 353 352 350 351 349 339 347 339 134 13 4 343 322 290 323 26 17 352 322 315 316 51 349 344 359 339 30 43 19 343 312 331 343 345 22 280 303 321 296 138 66
349 351 352 353 355 355 354 353 351 351 351 344 347 357 65 119 334 49 295 256 46 60 19 356 336 339 354 355 352 359 335 41 8 38 23 335 314 318 320 16 340 263 270 8 357 110 221
346 349 349 351 352 354 355 354 352 351 354 352 347 345 173 316 267 254 239 309 38 50 62 12 6 331 340 337 344 341 323 17 41 23 359 14 339 310 343 188 161 344 15 15 183 115 300
341 345 346 348 350 353 354 355 352 353 354 1 17 309 352 341 286 216 131 43 7 38 15 12 339 291 347 11 344 324 305 340 86 15 5 70 258 295 287 292 30 112 18 68 319 315 234
335 340 343 345 349 352 353 356 353 354 355 352 347 284 93 2 18 353 360 352 67 6 37 10 340 340 16 5 331 310 334 299 99 64 85 351 345 332 336 14 64 88 249 227 258 232 249
328 335 339 341 343 349 352 353 354 356 354 351 349 320 353 349 42 22 0 312 354 143 156 307 335 320 294 286 282 282 306 322 134 171 150 116 231 238 245 270 264 296 301 267 257 256 230
322 328 334 338 339 345 353 352 354 357 358 360 4 11 8 328 344 326 332 313 300 297 140 67 220 284 283 323 322 309 321 352 1 131 178 147 222 291 292 292 300 246 263 268 260 268 280
314 320 326 334 337 341 349 353 353 354 0 28 359 356 335 303 302 313 274 240 280 358 25 354 341 340 0 341 31 348 7 10 311 352 1 354 310 330 314 311 300 329 317 224 236 269 293
306 312 318 325 334 338 344 349 351 352 351 317 329 342 330 289 298 289 271 110 348 4 317 295 340 11 317 12 360 331 310 292 276 274 286 298 324 349 275 313 325 308 268 343 26 14 7
299 304 310 317 327 333 339 345 347 345 342 328 11 348 300 289 319 305 316 325 253 323 316 325 324 318 23 347 328 309 280 262 250 245 240 243 268 236 278 321 254 248 345 47 28 35 4
292 298 303 311 322 329 331 336 339 336 330 330 70 336 301 291 316 305 333 336 348 315 237 237 264 121 347 354 323 302 282 249 240 240 211 193 187 248 171 259 290 311 28 17 43 58 18
286 290 295 304 312 320 323 329 331 327 322 316 273 298 303 300 233 343 324 306 297 307 298 349 98 345 17 303 254 237 272 306 249 314 37 177 161 149 222 265 270 307 342 12 348 72 8
280 280 287 296 306 309 316 321 321 313 306 314 324 323 296 284 283 335 351 334 328 348 331 332 44 85 124 228 294 240 249 291 292 316 117 21 213 200 192 222 272 236 254 313 282 200 72
282 278 282 292 299 302 310 315 312 297 285 294 276 284 294 275 278 271 302 310 305 285 296 337 1 249 306 243 235 280 315 267 276 306 98 173 175 232 168 213 271 345 23 1 165 118 76
275 267 279 289 295 298 300 307 302 277 269 266 278 274 269 277 264 277 266 250 248 270 314 270 276 308 10 45 5 349 324 325 340 288 3 52 156 229 292 218 257 8 348 56 179 141 99
Wind_Speed_850mb
45 47 49 51 51 50 50 50 51 51 51 51 51 50 46 47 43 39 34 30 26 24 22 20 19 16 13 11 23 15 27 20 12 13 26 24 26 36 14 19 38 14 26 55 50 53 54
47 51 54 54 54 54 54 54 54 53 53 52 52 49 43 42 42 39 34 27 21 18 16 14 12 10 8 10 7 10 26 14 8 11 19 20 26 32 33 33 14 41 42 37 50 52 36
49 53 56 55 54 56 55 56 56 55 55 55 53 50 41 40 39 38 34 26 22 17 12 7 6 9 14 21 7 17 21 21 8 10 13 14 28 32 37 18 29 37 21 26 33 27 14
50 54 56 54 56 57 56 56 56 56 56 56 54 51 40 37 35 31 30 29 24 17 11 6 2 6 14 2 9 13 15 18 12 20 13 24 29 30 37 37 28 17 15 10 18 27 38
49 54 55 57 58 58 58 58 58 58 58 57 55 51 42 32 30 29 34 29 17 15 14 7 8 12 18 7 8 11 13 19 19 17 22 21 22 16 25 10 12 10 17 23 28 29 22
46 50 54 58 60 61 62 61 61 60 58 57 56 52 44 30 21 27 36 25 17 12 13 4 4 11 7 10 1 24 6 12 17 13 14 23 7 5 9 3 12 15 14 19 23 26 17
43 47 51 56 60 62 65 65 64 61 59 57 57 53 45 27 14 18 36 37 28 7 24 20 27 15 17 16 9 7 4 7 17 13 10 23 6 12 23 23 26 25 33 34 31 33 23
41 46 51 56 60 63 66 68 67 64 59 55 55 53 43 19 12 14 17 33 23 23 21 23 27 19 11 8 12 17 11 7 16 11 15 11 15 23 26 25 24 23 29 30 29 31 11
43 48 53 56 59 62 64 68 70 67 59 54 52 52 45 21 11 17 29 26 25 18 8 25 17 14 4 7 8 15 20 15 13 12 18 17 18 27 28 33 30 25 18 19 17 24 15
45 49 53 57 59 61 64 66 70 69 62 54 50 49 44 26 6 17 27 25 25 23 4 11 9 7 15 13 10 10 5 8 8 14 19 20 28 29 31 32 23 14 19 25 20 12 18
45 50 53 58 61 63 65 68 69 68 65 55 46 47 37 27 11 11 26 33 28 5 4 13 10 6 8 11 3 12 12 11 14 21 15 24 21 25 30 31 33 35 20 22 14 12 5
46 50 55 59 63 66 68 69 70 68 64 57 43 41 34 18 11 20 42 30 12 2 6 7 5 6 12 35 9 14 16 24 22 14 21 24 49 27 36 40 38 36 29 18 9 7 13
47 51 56 60 64 68 69 71 72 69 63 57 44 37 29 12 7 19 33 24 3 5 4 8 9 8 14 19 16 17 17 9 10 20 15 23 20 10 41 31 24 37 6 10 14 6 12
45 51 57 61 66 70 71 72 73 69 62 59 45 34 14 11 11 19 23 6 7 17 21 15 17 21 21 19 11 10 14 12 16 16 10 10 12 19 37 19 9 17 8 9 12 13 6
45 50 55 60 65 70 73 73 73 70 63 59 44 23 4 4 18 15 12 3 6 11 17 18 19 13 10 13 3 7 15 11 18 21 9 11 8 38 28 27 4 11 11 18 18 8 6
44 50 53 58 63 69 73 74 73 70 62 55 46 20 8 10 12 3 1 10 9 19 17 14 8 12 15 24 17 18 10 14 13 30 27 15 11 13 29 16 23 3 2 7 11 1 8
44 49 52 55 60 66 71 73 73 71 62 50 27 14 2 11 7 12 5 7 8 20 18 13 13 13 15 15 16 16 11 13 18 20 26 14 6 14 17 3 3 12 9 6 8 6 3
43 48 52 53 57 62 68 70 71 69 64 50 12 7 10 27 4 7 2 3 3 13 20 2 4 8 11 15 10 12 15 6 14 11 8 4 7 9 24 23 13 18 7 7 3 9 11
41 45 50 50 52 57 63 66 64 61 59 60 29 13 3 20 5 9 22 16 1 6 10 10 11 13 15 11 9 11 17 31 15 9 6 7 7 10 16 8 13 12 4 7 11 17 15
39 43 47 49 51 54 59 62 57 50 46 45 17 8 10 16 32 15 15 11 17 13 5 2 6 18 10 10 13 10 17 19 13 9 20 10 3 7 9 16 5 6 16 9 10 9 10
40 43 44 47 47 52 56 58 52 42 31 32 14 12 19 9 16 25 15 16 19 20 9 2 3 14 8 6 9 15 22 19 26 24 9 10 7 10 20 25 30 15 23 18 25 29 11
40 41 43 46 44 46 51 55 52 40 21 19 15 15 20 36 32 19 11 11 17 11 18 12 13 22 16 11 10 10 16 13 6 19 15 7 5 12 14 26 31 23 30 28 47 21 19
41 41 40 43 43 42 48 52 52 41 24 4 10 21 12 20 17 16 15 0 10 13 7 13 10 6 13 16 21 25 29 34 25 10 10 8 3 5 8 20 28 16 11 8 11 15 9
42 41 38 38 41 38 43 49 48 42 30 16 7 18 12 10 16 20 39 29 4 10 10 20 27 12 12 19 28 34 38 43 38 31 35 11 6 3 8 14 7 12 13 12 10 23 27
41 40 36 35 36 37 41 47 46 36 28 15 7 21 14 10 25 34 31 31 25 18 12 21 19 11 14 18 6 11 9 9 17 25 21 24 9 3 5 6 16 22 7 9 8 12 27
41 38 35 33 34 35 39 45 44 32 20 13 4 10 9 14 8 30 29 27 11 9 13 9 12 5 13 3 4 6 6 7 6 5 7 21 12 9 3 3 6 13 19 25 20 3 22
42 36 34 33 35 37 40 46 39 24 18 16 7 7 9 15 31 24 12 11 17 21 7 19 8 4 7 2 2 4 7 11 7 6 6 4 2 14 5 6 10 14 22 15 5 8 12
44 38 34 34 37 39 42 42 35 20 17 14 7 7 13 16 50 38 28 27 24 19 3 12 8 1 4 2 3 5 4 5 5 10 2 11 5 8 6 6 10 15 8 7 13 14 15
49 39 33 37 39 44 41 39 31 17 16 15 9 11 18 23 33 32 32 33 29 22 19 7 9 8 8 3 5 5 5 7 9 6 9 1 7 5 1 8 6 19 25 6 2 18 14
Wind_Direction_850mb
28 23 20 19 16 13 10 7 4 1 358 357 354 352 352 352 353 348 338 327 319 313 307 296 287 296 299 297 271 336 322 325 340 226 223 211 254 250 239 243 258 255 254 258 261 275 276
28 25 21 17 15 12 9 6 3 0 358 358 357 355 355 357 360 358 354 351 343 332 320 302 283 277 259 262 342 306 330 299 284 237 209 223 255 261 270 281 271 286 304 299 298 284 287
28 24 18 15 12 10 6 4 2 0 358 358 358 357 354 354 353 0 3 4 358 354 345 327 280 250 242 252 184 332 320 319 307 246 201 242 283 289 300 318 304 306 305 297 291 280 262
24 19 16 15 12 8 3 1 1 0 359 357 357 357 353 351 358 2 6 359 360 11 5 26 73 252 260 295 236 263 252 261 274 236 270 280 294 305 279 292 324 331 309 289 282 265 269
19 18 16 12 9 6 2 359 358 358 359 357 356 356 353 354 1 11 2 356 360 6 26 78 51 335 279 291 267 337 248 244 237 241 247 272 312 328 315 310 325 284 265 276 278 245 243
16 17 15 12 9 7 3 360 357 356 356 356 354 354 353 353 5 27 14 8 359 9 354 291 242 316 315 6 306 326 269 242 257 225 266 257 280 236 302 295 246 263 252 254 251 274 248
12 12 9 7 6 5 3 360 358 355 353 354 353 353 353 354 18 10 31 15 6 15 324 261 277 264 324 354 305 328 159 236 256 210 246 256 201 237 245 229 234 253 273 282 289 289 318
3 0 358 357 357 358 0 360 358 355 352 351 351 351 350 351 27 360 3 17 7 324 307 271 267 260 248 320 273 217 176 209 240 239 244 273 249 241 254 261 260 259 258 273 283 285 306
357 355 354 354 354 355 356 357 357 355 352 349 349 349 344 341 347 5 344 357 349 330 279 299 228 258 206 256 286 321 171 199 257 263 242 244 261 271 253 251 258 261 271 273 264 307 317
356 355 354 354 354 353 354 354 354 353 350 347 346 344 346 345 322 349 15 359 335 330 324 195 190 174 240 253 254 188 240 259 262 259 267 266 277 269 273 281 276 245 257 273 273 285 285
356 356 356 355 355 353 351 350 351 350 347 344 345 338 349 330 331 349 350 340 329 7 11 168 92 65 291 258 351 226 192 236 267 278 287 276 271 272 276 268 277 275 234 259 278 260 267
357 357 356 356 355 354 351 349 349 348 345 340 342 335 338 313 293 356 346 318 316 350 245 122 76 55 344 339 275 184 205 237 244 251 258 267 277 272 280 284 283 282 275 257 273 241 263
357 356 356 356 355 354 353 350 349 347 344 339 339 329 322 294 252 358 339 331 358 233 229 79 30 345 336 297 300 360 306 356 317 305 302 286 259 24 31 356 339 347 262 282 253 279 225
355 355 354 354 354 353 353 351 350 349 346 337 341 329 327 49 29 6 336 351 262 351 20 28 8 324 288 269 31 336 350 328 319 21 328 1 354 39 340 334 238 322 43 269 219 219 269
352 354 354 353 355 354 353 352 350 351 349 339 347 339 134 13 4 343 322 290 323 26 17 352 322 315 316 51 349 344 359 339 30 43 19 343 312 331 343 345 22 280 303 321 296 138 66
349 351 352 353 355 355 354 353 351 351 351 344 347 357 65 119 334 49 295 256 46 60 19 356 336 339 354 355 352 359 335 41 8 38 23 335 314 318 320 16 340 263 270 8 357 110 221
346 349 349 351 352 354 355 354 352 351 354 352 347 345 173 316 267 254 239 309 38 50 62 12 6 331 340 337 344 341 323 17 41 23 359 14 339 310 343 188 161 344 15 15 183 115 300
341 345 346 348 350 353 354 355 352 353 354 1 17 309 352 341 286 216 131 43 7 38 15 12 339 291 347 11 344 324 305 340 86 15 5 70 258 295 287 292 30 112 18 68 319 315 234
335 340 343 345 349 352 353 356 353 354 355 352 347 284 93 2 18 353 360 352 67 6 37 10 340 340 16 5 331 310 334 299 99 64 85 351 345 332 336 14 64 88 249 227 258 232 249
328 335 339 341 343 349 352 353 354 356 354 351 349 320 353 349 42 22 0 312 354 143 156 307 335 320 294 286 282 282 306 322 134 171 150 116 231 238 245 270 264 296 301 267 257 256 230
322 328 334 338 339 345 353 352 354 357 358 360 4 11 8 328 344 326 332 313 300 297 140 67 220 284 283 323 322 309 321 352 1 131 178 147 222 291 292 292 300 246 263 268 260 268 280
314 320 326 334 337 341 349 353 353 354 0 28 359 356 335 303 302 313 274 240 280 358 25 354 341 340 0 341 31 348 7 10 311 352 1 354 310 330 314 311 300 329 317 224 236 269 293
306 312 318 325 334 338 344 349 351 352 351 317 329 342 330 289 298 289 271 110 348 4 317 295 340 11 317 12 360 331 310 292 276 274 286 298 324 349 275 313 325 308 268 343 26 14 7
299 304 310 317 327 333 339 345 347 345 342 328 11 348 300 289 319 305 316 325 253 323 316 325 324 318 23 347 328 309 280 262 250 245 240 243 268 236 278 321 254 248 345 47 28 35 4
292 298 303 311 322 329 331 336 339 336 330 330 70 336 301 291 316 305 333 336 348 315 237 237 264 121 347 354 323 302 282 249 240 240 211 193 187 248 171 259 290 311 28 17 43 58 18
286 290 295 304 312 320 323 329 331 327 322 316 273 298 303 300 233 343 324 306 297 307 298 349 98 345 17 303 254 237 272 306 249 314 37 177 161 149 222 265 270 307 342 12 348 72 8
280 280 287 296 306 309 316 321 321 313 306 314 324 323 296 284 283 335 351 334 328 348 331 332 44 85 124 228 294 240 249 291 292 316 117 21 213 200 192 222 272 236 254 313 282 200 72
282 278 282 292 299 302 310 315 312 297 285 294 276 284 294 275 278 271 302 310 305 285 296 337 1 249 306 243 235 280 315 267 276 306 98 173 175 232 168 213 271 345 23 1 165 118 76
275 267 279 289 295 298 300 307 302 277 269 266 278 274 269 277 264 277 266 250 248 270 314 270 276 308 10 45 5 349 324 325 340 288 3 52 156 229 292 218 257 8 348 56 179 141 99